Home   Weather   Weimar   Past weeks

Flag for Germany Past Weather in Weimar, Thuringia, Germany — Yesterday and Last 2 Weeks

Now
61 °F

Passing clouds.


Feels Like: 61 °F
Forecast: 52 / 67 °F
Wind: 2 mph from North

Location: Erfurt-Bindersleben

Current Time: Sep 27, 2016 at 12:40:57 AM

Latest Report: Sep 27, 2016 at 12:20 AM


Visibility: N/A

Pressure: 30.21 "Hg

Humidity: 83%

Dew Point: 55 °F

Location of WeimarLocation

Past Weather in Weimar — Graph

°F

Weimar Temperature Yesterday

Maximum temperature yesterday: 64 °F (at 3:20 PM)
Minimum temperature yesterday: 50 °F (at 5:50 AM)
Average temperature yesterday: 58 °F

High & Low Weather Summary for the Past Weeks

 TemperatureHumidityPressure
High90 °F (Sep 12, 4:20 PM)100% (Sep 17, 2:20 AM)30.33 "Hg (Sep 17, 2:20 AM)
Low43 °F (Sep 21, 5:50 AM)29% (Sep 12, 3:50 PM)29.89 "Hg (Sep 15, 3:20 PM)
Average62 °F73%30.07 "Hg
* Reported Sep 11 11:20 PM — Sep 26 11:20 PM, Weimar, Weather by CustomWeather, © 2016

Note: Actual official high and low records may vary slightly from our data, if they occured in-between our weather recording intervals... More about our weather records

Advertising

Weimar Weather History for the Previous 24 Hours

Scroll right to see more
 ConditionsComfort  
Time TempWeatherWind HumidityBarometerVisibility
11:20 PM
Mon, Sep 26
59 °FPassing clouds.3 mph88%30.21 "HgN/A
10:50 PM61 °FPassing clouds.3 mph83%30.24 "HgN/A
10:20 PM61 °FPassing clouds.2 mph83%30.24 "HgN/A
9:50 PM61 °FPassing clouds.2 mph83%30.21 "HgN/A
9:20 PM61 °FPassing clouds.2 mph83%30.21 "HgN/A
8:50 PM61 °FPartly cloudy.1 mph83%30.21 "HgN/A
8:20 PM61 °FPartly cloudy.2 mph83%30.21 "HgN/A
7:50 PM63 °FPassing clouds.1 mph77%30.21 "HgN/A
7:20 PM63 °FPassing clouds.3 mph77%30.21 "HgN/A
6:50 PM63 °FPartly sunny.3 mph77%30.21 "HgN/A
6:20 PM64 °FPartly sunny.2 mph68%30.21 "HgN/A
5:50 PM64 °FPartly sunny.3 mph68%30.18 "HgN/A
5:20 PM64 °FPartly sunny.2 mph68%30.18 "HgN/A
4:50 PM64 °FPartly sunny.3 mph68%30.18 "HgN/A
4:20 PM64 °FPartly sunny.2 mph68%30.18 "HgN/A
3:50 PM64 °FPartly sunny.2 mph68%30.18 "HgN/A
3:20 PM64 °FPartly sunny.3 mph68%30.21 "HgN/A
2:50 PM63 °FPartly sunny.2 mph73%30.21 "HgN/A
2:20 PM63 °FPartly sunny.2 mph73%30.21 "HgN/A
1:50 PM61 °FOvercast.2 mph77%30.21 "HgN/A
1:20 PM61 °FPartly sunny.5 mph77%30.21 "HgN/A
12:50 PM61 °FPartly sunny.7 mph83%30.21 "HgN/A
12:20 PM61 °FPartly sunny.3 mph83%30.21 "HgN/A
11:50 AM61 °FPartly sunny.2 mph77%30.21 "HgN/A
11:20 AM61 °FPartly sunny.6 mph83%30.21 "HgN/A
10:50 AM61 °FScattered clouds.7 mph83%30.18 "HgN/A
10:20 AM61 °FPassing clouds.6 mph77%30.18 "HgN/A
9:50 AM59 °FScattered clouds.10 mph82%30.18 "HgN/A
9:20 AM59 °FPassing clouds.6 mph88%30.18 "HgN/A
8:50 AM57 °FSunny.8 mph94%30.18 "Hg10 mi
8:20 AM54 °FSunny.8 mph100%30.18 "Hg10 mi
7:50 AM52 °FSunny.9 mph100%30.18 "Hg10 mi
7:20 AM52 °FSunny.9 mph100%30.15 "Hg10 mi
6:50 AM52 °FClear.10 mph94%30.15 "Hg10 mi
6:20 AM52 °FClear.10 mph94%30.15 "Hg10 mi
5:50 AM50 °FClear.9 mph100%30.15 "Hg10 mi
5:20 AM52 °FClear.10 mph94%30.15 "Hg10 mi
4:50 AM52 °FClear.10 mph88%30.15 "Hg10 mi
4:20 AM52 °FClear.8 mph88%30.15 "Hg10 mi
3:50 AM52 °FClear.7 mph82%30.12 "Hg10 mi
3:20 AM52 °FClear.7 mph82%30.12 "Hg10 mi
2:50 AM52 °FClear.5 mph88%30.12 "Hg10 mi
2:20 AM54 °FClear.7 mph77%30.12 "Hg10 mi
1:50 AM55 °FClear.10 mph77%30.12 "Hg10 mi
1:20 AM57 °FClear.10 mph72%30.12 "Hg10 mi
12:50 AM57 °FClear.9 mph72%30.12 "Hg10 mi
12:20 AM54 °FClear.9 mph82%30.12 "Hg10 mi
Weather by CustomWeather, © 2016

See weather overviewHow to use our weather pages